TimeEST,TemperatureF,Dew PointF,Humidity,Sea Level PressureIn,VisibilityMPH,Wind Direction,Wind SpeedMPH,Gust SpeedMPH,PrecipitationIn,Events,Conditions,WindDirDegrees,DateUTC
12:11 AM,41.0,39.0,93,30.26,2.0,ENE,5.8,-,N/A,,Overcast,60,2013-12-09 05:11:00
12:22 AM,41.0,39.0,93,30.26,1.8,East,4.6,-,N/A,,Overcast,80,2013-12-09 05:22:00
12:37 AM,41.0,39.0,93,30.25,1.5,NE,5.8,-,N/A,,Overcast,40,2013-12-09 05:37:00
12:53 AM,41.0,39.0,93,30.26,2.0,ENE,4.6,-,0.00,Rain,Light Rain,70,2013-12-09 05:53:00
1:09 AM,41.0,39.0,93,30.24,1.5,ENE,4.6,-,0.00,,Overcast,70,2013-12-09 06:09:00
1:23 AM,41.0,39.0,93,30.25,2.0,ENE,4.6,-,0.00,,Overcast,70,2013-12-09 06:23:00
1:53 AM,41.0,39.0,93,30.25,2.5,ENE,3.5,-,0.00,,Overcast,60,2013-12-09 06:53:00
2:11 AM,41.0,39.0,93,30.24,3.0,ENE,3.5,-,N/A,,Overcast,70,2013-12-09 07:11:00
2:44 AM,41.0,39.0,93,30.24,2.0,ENE,5.8,-,N/A,,Overcast,70,2013-12-09 07:44:00
2:53 AM,41.0,39.0,93,30.24,2.0,ENE,3.5,-,N/A,,Overcast,70,2013-12-09 07:53:00
3:53 AM,41.0,39.0,93,30.23,2.0,NNE,3.5,-,N/A,,Overcast,30,2013-12-09 08:53:00
4:42 AM,41.0,39.0,93,30.20,1.8,Calm,Calm,-,N/A,,Overcast,0,2013-12-09 09:42:00
4:53 AM,41.0,39.0,93,30.20,1.8,Calm,Calm,-,N/A,,Overcast,0,2013-12-09 09:53:00
5:08 AM,41.0,39.9,96,30.20,2.0,NNE,3.5,-,N/A,,Overcast,20,2013-12-09 10:08:00
5:46 AM,41.0,39.9,96,30.20,1.8,North,3.5,-,N/A,,Overcast,350,2013-12-09 10:46:00
5:53 AM,42.1,39.9,92,30.20,1.8,NNE,4.6,-,N/A,,Overcast,20,2013-12-09 10:53:00
6:02 AM,42.1,39.9,92,30.20,2.0,NNE,5.8,-,N/A,,Overcast,20,2013-12-09 11:02:00
6:53 AM,42.1,39.9,92,30.20,2.0,Calm,Calm,-,N/A,,Overcast,0,2013-12-09 11:53:00
7:28 AM,42.1,39.9,92,30.21,1.5,Calm,Calm,-,N/A,,Overcast,0,2013-12-09 12:28:00
7:53 AM,42.1,39.9,92,30.20,0.8,East,4.6,-,N/A,,Overcast,100,2013-12-09 12:53:00
8:53 AM,43.0,42.1,97,30.20,0.8,Calm,Calm,-,N/A,,Overcast,0,2013-12-09 13:53:00
9:02 AM,43.0,42.1,97,30.20,1.0,Calm,Calm,-,N/A,,Overcast,0,2013-12-09 14:02:00
9:37 AM,44.1,42.1,93,30.20,1.8,Calm,Calm,-,N/A,,Overcast,0,2013-12-09 14:37:00
9:46 AM,44.1,42.1,93,30.20,1.5,Calm,Calm,-,N/A,,Overcast,0,2013-12-09 14:46:00
9:53 AM,44.1,43.0,96,30.20,1.2,Calm,Calm,-,N/A,,Overcast,0,2013-12-09 14:53:00
10:53 AM,46.9,44.1,90,30.19,1.5,Calm,Calm,-,N/A,,Overcast,0,2013-12-09 15:53:00
11:53 AM,48.0,46.0,93,30.18,0.8,NW,3.5,-,N/A,,Overcast,310,2013-12-09 16:53:00
12:53 PM,50.0,48.0,93,30.15,0.8,Calm,Calm,-,N/A,,Overcast,0,2013-12-09 17:53:00
1:11 PM,51.1,48.9,92,30.14,1.0,Calm,Calm,-,N/A,,Overcast,0,2013-12-09 18:11:00
1:40 PM,52.0,50.0,93,30.13,0.8,Calm,Calm,-,N/A,,Overcast,0,2013-12-09 18:40:00
1:53 PM,52.0,51.1,97,30.13,0.5,Calm,Calm,-,N/A,Fog,Fog,0,2013-12-09 18:53:00
2:24 PM,54.0,52.0,93,30.11,1.0,SSW,3.5,-,N/A,,Overcast,200,2013-12-09 19:24:00
2:48 PM,53.6,51.8,94,30.11,2.0,SW,3.5,-,N/A,,Overcast,220,2013-12-09 19:48:00
2:53 PM,54.0,53.1,97,30.11,3.0,Calm,Calm,-,N/A,,Overcast,0,2013-12-09 19:53:00
3:53 PM,55.9,54.0,93,30.11,6.0,South,4.6,-,N/A,,Overcast,180,2013-12-09 20:53:00
4:53 PM,55.9,54.0,93,30.11,1.8,SSW,3.5,-,N/A,,Overcast,200,2013-12-09 21:53:00
5:01 PM,55.9,54.0,93,30.11,1.2,SSW,3.5,-,N/A,,Overcast,200,2013-12-09 22:01:00
5:15 PM,55.9,54.0,93,30.11,0.8,Calm,Calm,-,N/A,,Overcast,0,2013-12-09 22:15:00
5:32 PM,55.9,55.0,97,30.11,1.0,Calm,Calm,-,N/A,,Overcast,0,2013-12-09 22:32:00
5:53 PM,55.9,55.0,97,30.11,0.8,Calm,Calm,-,N/A,,Mist,0,2013-12-09 22:53:00
6:53 PM,57.0,55.0,93,30.11,0.5,SSE,4.6,-,N/A,Fog,Fog,160,2013-12-09 23:53:00
7:53 PM,57.0,55.9,96,30.11,0.5,Calm,Calm,-,N/A,Fog,Fog,0,2013-12-10 00:53:00
8:53 PM,57.0,55.9,96,30.11,0.2,Calm,Calm,-,N/A,Fog,Fog,0,2013-12-10 01:53:00
9:53 PM,57.0,55.9,96,30.09,0.2,NNE,3.5,-,N/A,Fog,Fog,20,2013-12-10 02:53:00
10:10 PM,57.0,55.9,96,30.08,0.2,Calm,Calm,-,N/A,Fog,Fog,0,2013-12-10 03:10:00
10:41 PM,57.0,55.9,96,30.08,0.5,Calm,Calm,-,N/A,Fog,Fog,0,2013-12-10 03:41:00
10:53 PM,57.0,55.9,96,30.07,1.0,Calm,Calm,-,N/A,,Overcast,0,2013-12-10 03:53:00
11:02 PM,57.0,55.9,96,30.07,2.0,Calm,Calm,-,N/A,,Overcast,0,2013-12-10 04:02:00
11:28 PM,57.0,55.9,96,30.06,1.5,Calm,Calm,-,N/A,,Overcast,0,2013-12-10 04:28:00
11:42 PM,57.0,55.9,96,30.05,0.5,Calm,Calm,-,N/A,Fog,Fog,0,2013-12-10 04:42:00
11:53 PM,57.9,55.9,93,30.05,0.2,Calm,Calm,-,N/A,Fog,Fog,0,2013-12-10 04:53:00